Terug naar catalogus

STARLINK-36238

ActiefCommunicatieVLEO
NORAD 68563·PAYLOAD·🇺🇸 United States

Gelanceerd Apr 2, 2026 vanaf Cape Canaveral Space Force Station

Loading…

Volgende Passages (komende 24 uur)

TLE

VersSource: CelesTrak SupGP

Epoch: Sep 14, 2026, 20:55 UTC

1 68563C 26070X   26257.87201389  .00025908  00000+0  76522-3 0  2578
2 68563  53.1581 199.7967 0001237  85.4947  15.8293 15.34387302    16

Volg STARLINK-36238 in realtime met AllMySat

Download on the App Store